Weather History for Raleigh-Durham Airport, NC

Change the Weather History Date:

Tuesday, June 14, 2011

  Actual Average Record
Temperature  
Mean Temperature 74 °F 76 °F  
Max Temperature 84 °F 87 °F 97 °F (1944)
Min Temperature 64 °F 66 °F 46 °F (1985)
Degree Days  
Heating Degree Days 0 0  
Month to date heating degree days 0 0  
Since 1 June heating degree days 0 0  
Since 1 July heating degree days 3316 3243  
Cooling Degree Days 9 11  
Month to date cooling degree days 213 136  
Year to date cooling degree days 501 345  
Since 1 June cooling degree days 213 136  
Growing Degree Days 23 (Base 50)    
Moisture  
Dew Point 54 °F    
Average Humidity 55    
Maximum Humidity 79    
Minimum Humidity 31    
Precipitation  
Precipitation 0.00 in 0.12 in 5.64 in (2006)
Month to date precipitation 0.54 1.66  
Year to date precipitation 14.40 18.69  
Sea Level Pressure  
Sea Level Pressure 29.92 in    
Wind  
Wind Speed 5 mph (NNE)    
Max Wind Speed 13 mph    
Max Gust Speed 20 mph    
Visibility 10 miles    
Events      
T = Trace of Precipitation, MM = Missing Value Source: NWS Daily Summary

Daily Weather History Graph

Daily Weather History Graph

Search for Another Location

Airport:

Trip Planner

Search our weather history database for the weather conditions in past years. The results will help you decide how hot, cold, wet, or windy it might be!

Date:

Astronomy

Jun. 14, 2011 Rise Set
Actual Time 5:58 AM EDT 8:32 PM EDT
Civil Twilight 5:27 AM EDT 9:02 PM EDT
Nautical Twilight 4:50 AM EDT 9:40 PM EDT
Astronomical Twilight 4:09 AM EDT 10:21 PM EDT
Moon 7:40 PM EDT (6/14) 4:39 AM EDT (6/14)
Length of Visible Light 15h 34m
Length of Day
14h 34m
Waxing Gibbous, 98% of the Moon is Illuminated
Jun 14
Waxing Gibbous
Jun 15
Full
Jun 23
Last Quarter
Jul 1
New
Jul 8
First Quarter

Hourly Weather History & Observations

Time (EDT) Temp. Dew Point Humidity Pressure Visibility Wind Dir Wind Speed Gust Speed Precip Events Conditions
12:51 AM 72.0 °F 64.9 °F 78% 29.93 in 7.0 mi NE 6.9 mph - N/A   Mostly Cloudy
1:51 AM 70.0 °F 57.9 °F 65% 29.93 in 7.0 mi NE 9.2 mph - N/A   Scattered Clouds
2:51 AM 70.0 °F 57.0 °F 63% 29.92 in 7.0 mi NE 6.9 mph - N/A   Mostly Cloudy
3:51 AM 66.9 °F 55.0 °F 66% 29.92 in 10.0 mi NE 5.8 mph - N/A   Mostly Cloudy
4:51 AM 66.9 °F 55.0 °F 66% 29.92 in 10.0 mi NNE 3.5 mph - N/A   Mostly Cloudy
5:51 AM 64.9 °F 55.9 °F 73% 29.92 in 10.0 mi Calm Calm - N/A   Mostly Cloudy
6:51 AM 66.0 °F 57.9 °F 75% 29.94 in 10.0 mi North 3.5 mph - N/A   Mostly Cloudy
7:51 AM 68.0 °F 57.9 °F 70% 29.95 in 10.0 mi North 3.5 mph - N/A   Scattered Clouds
8:51 AM 72.0 °F 57.0 °F 59% 29.96 in 10.0 mi North 8.1 mph - N/A   Scattered Clouds
9:51 AM 75.0 °F 54.0 °F 48% 29.96 in 10.0 mi NNE 8.1 mph - N/A   Scattered Clouds
10:51 AM 77.0 °F 51.1 °F 40% 29.95 in 10.0 mi NNE 11.5 mph 17.3 mph N/A   Scattered Clouds
11:51 AM 79.0 °F 53.1 °F 40% 29.95 in 10.0 mi North 9.2 mph - N/A   Mostly Cloudy
12:51 PM 80.1 °F 51.1 °F 36% 29.94 in 10.0 mi WNW 9.2 mph - N/A   Scattered Clouds
1:51 PM 81.0 °F 50.0 °F 34% 29.90 in 10.0 mi West 3.5 mph 16.1 mph N/A   Scattered Clouds
2:51 PM 82.0 °F 50.0 °F 33% 29.90 in 10.0 mi Calm Calm - N/A   Scattered Clouds
3:51 PM 82.9 °F 48.0 °F 29% 29.88 in 10.0 mi NNW 8.1 mph - N/A   Mostly Cloudy
4:51 PM 81.0 °F 48.9 °F 33% 29.88 in 10.0 mi North 9.2 mph - N/A   Scattered Clouds
5:51 PM 80.1 °F 48.9 °F 34% 29.87 in 10.0 mi Variable 6.9 mph - N/A   Scattered Clouds
6:51 PM 80.1 °F 50.0 °F 35% 29.87 in 10.0 mi NNE 5.8 mph - N/A   Mostly Cloudy
7:51 PM 77.0 °F 52.0 °F 42% 29.88 in 10.0 mi NE 6.9 mph - N/A   Mostly Cloudy
8:51 PM 73.9 °F 54.0 °F 50% 29.88 in 10.0 mi Calm Calm - N/A   Mostly Cloudy
9:51 PM 70.0 °F 55.0 °F 59% 29.90 in 10.0 mi Calm Calm - N/A   Mostly Cloudy
10:51 PM 66.9 °F 55.0 °F 66% 29.92 in 10.0 mi Calm Calm - N/A   Scattered Clouds
11:51 PM 66.0 °F 55.9 °F 70% 29.91 in 10.0 mi Calm Calm - N/A   Scattered Clouds